Flag for Canada Weather past 2 weeks in Brandon, Manitoba, Canada

Now
45 °F

Light rain. Mostly cloudy.


Feels Like: 37 °F
Forecast: 38 / 48 °F
Wind: 16 mph from Southeast

Location: Brandon


UV Index: 0 (Low)

Visibility: 10 mi


Pressure: 29.84 "Hg

Humidity: 81%

Dew point: 39 °F

Location of BrandonLocation

Historic Weather in Brandon

°F

Brandon temperature yesterday

Maximum temperature yesterday: 61 °F (at 5:00 PM)
Minimum temperature yesterday: 28 °F (at 6:00 AM)
Average temperature yesterday: 46 °F

Past Weeks' High & Low Weather Summary

 TemperatureHumidityPressure
High61 °F (Apr 22, 5:00 PM)100% (Apr 9, 4:00 AM)30.48 "Hg (Apr 9, 4:00 AM)
Low10 °F (Apr 15, 3:00 AM)34% (Apr 22, 5:00 PM)29.42 "Hg (Apr 9, 1:00 PM)
Average32 °F73%30.06 "Hg
* Reported Apr 8 1:00 PM — Apr 23 1:00 PM, Brandon, Weather by CustomWeather, © 2014

Note: Actual official high and low records may vary slightly from our data, if they occured in-between our weather recording intervals... More about our weather records

Advertising

Historic Weather Conditions — Data for Previous 24 hours

 ConditionsComfort  
Time TempWeatherWind HumidityBarometerVisibility
1:00 PM
Apr 23
45 °FLight rain. Mostly cloudy.16 mph81%29.84 "Hg10 mi
12:00 PM46 °FMostly cloudy.17 mph66%29.84 "Hg15 mi
11:00 AM45 °FMostly cloudy.13 mph66%29.84 "Hg15 mi
10:00 AM45 °FMostly cloudy.16 mph61%29.85 "Hg15 mi
9:00 AM41 °FMore clouds than sun.16 mph76%29.87 "Hg15 mi
8:00 AM37 °FOvercast.16 mph81%29.88 "Hg15 mi
7:00 AM37 °FPassing clouds.13 mph81%29.89 "Hg15 mi
6:00 AM36 °FPassing clouds.13 mph81%29.90 "Hg15 mi
5:00 AM37 °FClear.10 mph81%29.91 "Hg15 mi
4:00 AM43 °FClear.14 mph66%29.92 "Hg15 mi
3:00 AM43 °FPassing clouds.13 mph71%29.94 "Hg15 mi
2:00 AM45 °FClear.13 mph66%29.95 "Hg15 mi
1:00 AM39 °FClear.8 mph81%29.97 "Hg15 mi
12:00 AM46 °FPassing clouds.9 mph66%29.98 "Hg15 mi
11:00 PM
Apr 22
48 °FPassing clouds.10 mph62%29.98 "Hg15 mi
10:00 PM50 °FClear.10 mph62%29.97 "Hg15 mi
9:00 PM52 °FScattered clouds.10 mph62%29.96 "Hg15 mi
8:00 PM57 °FScattered clouds.12 mph48%29.95 "Hg15 mi
7:00 PM61 °FScattered clouds.13 mph39%29.97 "Hg15 mi
6:00 PM61 °FPassing clouds.12 mph36%29.98 "Hg15 mi
5:00 PM61 °FPassing clouds.12 mph34%29.99 "Hg15 mi
4:00 PM59 °FSunny.12 mph42%30.01 "Hg15 mi
3:00 PM59 °FSunny.10 mph39%30.04 "Hg15 mi
2:00 PM57 °FSunny.7 mph44%30.05 "Hg15 mi
Weather by CustomWeather, © 2014

See weather overview